Regional Weather Roundup
Issued by NWS Charleston, WV

Home | Current Version | Previous Version | Text Only | Print | Product List | Glossary Off
Versions: 1 2 3 4 5 6 7 8 9 10 11 12 13 14 15 16 17 18 19 20 21 22 23 24 25 26 27 28 29 30 31 32 33 34 35 36 37 38 39 40 41 42 43 44 45 46 47 48 49 50

000
ASUS41 KRLX 082010
RWRRLX
West Virginia Regional Weather Roundup
National Weather Service Charleston WV
300 PM EST THU DEC 08 2016

Note: "fair" indicates few or no clouds below 12,000 feet with no
significant weather and/or obstructions to visibility.

WVZ003-082100-
Northern Panhandle of West Virginia

CITY           SKY/WX    TMP DP  RH WIND       PRES   REMARKS
WHEELING       CLOUDY    26  16  65 W12G21    30.15R
$$

WVZ009-082100-
Northwest West Virginia

CITY           SKY/WX    TMP DP  RH WIND       PRES   REMARKS
PARKERSBURG    PTSUNNY   32  16  51 NW16G23   30.22R
$$

WVZ006-082100-
Western West Virginia

CITY           SKY/WX    TMP DP  RH WIND       PRES   REMARKS
HUNTINGTON     SUNNY     36  15  42 W13G21    30.24R
$$

WVZ015-082100-
West Central West Virginia

CITY           SKY/WX    TMP DP  RH WIND       PRES   REMARKS
CHARLESTON     MOSUNNY   37  16  42 W14G24    30.19R
$$

WVZ022-031-082100-
North Central West Virginia

CITY           SKY/WX    TMP DP  RH WIND       PRES   REMARKS
CLARKSBURG     SUNNY     34  16  47 W14G23    30.12R
MORGANTOWN     PTSUNNY   32  15  49 W12       30.12R
$$

WVZ025-035-042-045-082100-
Southern West Virginia

CITY           SKY/WX    TMP DP  RH WIND       PRES   REMARKS
BECKLEY        SUNNY     32  13  45 W12       30.10R
LOGAN            N/A     37  16  41 W12       30.17R
BLUEFIELD      SUNNY     31  10  41 NW15G28   30.10R
LEWISBURG      NOT AVBL
$$

WVZ047-082100-
Northern Mountains of West Virginia

CITY           SKY/WX    TMP DP  RH WIND       PRES   REMARKS
ELKINS         PTSUNNY   34  15  46 NW10      30.07R
$$

WVZ052-082100-
Eastern Panhandle of West Virginia

CITY           SKY/WX    TMP DP  RH WIND       PRES   REMARKS
MARTINSBURG    CLOUDY    43  16  33 W18G24    30.02R
PETERSBURG     NOT AVBL
$$




USA.gov is the U.S. government's official web portal to all federal, state and local government web resources and services.